Regional Weather Roundup
Issued by NWS

Home | Current Version | Previous Version | Text Only | Print | Product List | Glossary Off
Versions: 1 2 3 4 5 6 7 8 9 10 11 12 13 14 15 16 17 18 19 20 21 22 23 24 25 26 27 28 29 30 31 32 33 34 35 36 37 38 39 40 41 42 43 44 45 46 47 48 49 50

000
ASUS43 KOAX 240310
RWRNE

WEATHER ROUNDUP FOR NEBRASKA
NATIONAL WEATHER SERVICE OMAHA NE
1000 PM CDT TUE SEP 23 2014

NOTES: SATELLITE DATA IS BEING USED TO AUGMENT CLOUD COVER ABOVE
       12000 FEET.
       "FAIR" INDICATES FEW OR NO CLOUDS BELOW 12,000 FEET WITH NO
       SIGNIFICANT WEATHER AND/OR OBSTRUCTIONS TO VISIBILITY.

  * THESE STATIONS DO NOT REPORT WEATHER SUCH AS RAIN...SNOW OR FOG.

NEZ001>004-019>022-054>056-240400-
NEBRASKA PANHANDLE

CITY           SKY/WX    TMP DP  RH WIND       PRES   REMARKS
SCOTTSBLUFF    CLEAR     62  50  64 E3        30.06R
ALLIANCE       PTCLDY    59  50  72 SE3       30.05R
CHADRON        CLEAR     59  52  77 SW5       30.00R
KIMBALL        CLEAR     60  46  61 NW6       30.11R
SIDNEY         CLEAR     65  48  54 NE8       30.09R
$$

NEZ057>060-069>072-079>082-240400-
SOUTHWEST NEBRASKA

CITY           SKY/WX    TMP DP  RH WIND       PRES   REMARKS
NORTH PLATTE   MOCLDY    67  60  78 E9        30.00R
IMPERIAL       CLEAR     64  50  60 S9        30.02R
LEXINGTON      DRIZZLE   64  60  85 E12       30.01R
MCCOOK         MOCLDY    69  59  70 SW7       29.99R
OGALLALA       PTCLDY    65  54  65 SE3       30.02R
$$

NEZ005>010-023>029-035>040-094-240400-
NORTH CENTRAL NEBRASKA

CITY           SKY/WX    TMP DP  RH WIND       PRES   REMARKS
VALENTINE      PTCLDY    62  60  93 CALM      29.97R
AINSWORTH      CLEAR     61  60  94 S9        29.98R
BROKEN BOW     MOCLDY    63  61  93 S13       30.02F
O`NEILL        PTCLDY    61  59  94 S14       30.00S
ORD            CLOUDY    61  58  90 SE14G21   30.00S
THEDFORD       CLEAR     65  59  81 SW8       30.01R
$$

NEZ041-046>049-061>064-073>077-083>087-240400-
SOUTH CENTRAL NEBRASKA

CITY           SKY/WX    TMP DP  RH WIND       PRES   REMARKS
GRAND ISLAND   LGT RAIN  62  56  80 SE8       30.06R
AURORA         MOCLDY    61  55  81 SE6       30.07R
HASTINGS       CLOUDY    62  54  74 SE13      30.03R
HEBRON         MOCLDY    63  55  75 SE14G20   30.06R
HOLDREGE       PTCLDY    63  58  84 SE12      29.99S
KEARNEY *      CLOUDY    61  55  82 NE13      30.04R
YORK           MOCLDY    61  55  82 S9        30.07R
$$

NEZ011>018-030>034-042>045-240400-
NORTHEAST NEBRASKA

CITY           SKY/WX    TMP DP  RH WIND       PRES   REMARKS
NORFOLK        CLOUDY    60  54  80 SE14      30.05F
ALBION         CLOUDY    59  56  91 SE9       30.05R
BLAIR          CLOUDY    64  55  71 SE12G18   30.10S
COLUMBUS *     CLOUDY    57  52  82 E3        30.09R
FREMONT        MOCLDY    63  55  75 SE13      30.08F
TEKAMAH        CLOUDY    64  54  69 S12       30.09R
WAYNE          CLOUDY    59  55  84 S12       30.07S
$$

NEZ050>053-065>068-078-088>093-240400-
SOUTHEAST NEBRASKA

CITY           SKY/WX    TMP DP  RH WIND       PRES   REMARKS
LINCOLN        MOCLDY    63  55  75 S15       30.09R
OMAHA EPPLEY   CLOUDY    64  54  69 SE18      30.10F
BEATRICE       CLOUDY    63  56  79 SE16G23   30.09R
FALLS CITY     CLOUDY    62  58  86 SE13      30.13R
NEBRASKA CITY  CLOUDY    62  54  73 S13       30.11S
PLATTSMOUTH    CLOUDY    62  53  71 SE10G20   30.11S
$$

NEZ044-045-051>053-067-240400-
OMAHA AREA

CITY           SKY/WX    TMP DP  RH WIND       PRES   REMARKS
OMAHA EPPLEY   CLOUDY    64  54  69 SE18      30.10F
BLAIR          CLOUDY    64  55  71 SE12G18   30.10S
FREMONT        MOCLDY    63  55  75 SE13      30.08F
MILLARD        CLOUDY    64  56  77 SE10      30.10S
OFFUTT AFB     CLOUDY    63  59  87 SE12      30.11S
PLATTSMOUTH    CLOUDY    62  53  71 SE10G20   30.11S
WAHOO          FAIR      62  55  76 SE8       30.09S
$$



USA.gov is the U.S. government's official web portal to all federal, state and local government web resources and services.